This is the latest recevied weather packets stored in our database for station/object OM2RC-6. If no packets are shown the sender has not sent any weather packets the latest 10 day(s).
| Time | Temp. | Humidity | Pressure | Rain* | Wind** | Luminosity | Snow |
|---|---|---|---|---|---|---|---|
| 1777507170 | 0.56° C | 91% | 1030.7 hPa | - | - | - | - |
| 1777506869 | 0.56° C | 92% | 1030.7 hPa | - | - | - | - |
| 1777506568 | 0.56° C | 91% | 1030.8 hPa | - | - | - | - |
| 1777505665 | 0.56° C | 87% | 1030.7 hPa | - | - | - | - |
| 1777505063 | 1.67° C | 76% | 1030.6 hPa | - | - | - | - |
| 1777502354 | 2.22° C | 76% | 1030.2 hPa | - | - | - | - |
| 1777502053 | 2.22° C | 76% | 1030.2 hPa | - | - | - | - |
| 1777501751 | 2.22° C | 76% | 1030.2 hPa | - | - | - | - |
| 1777501450 | 2.22° C | 72% | 1030.2 hPa | - | - | - | - |
| 1777500848 | 2.78° C | 70% | 1030.3 hPa | - | - | - | - |
| 1777500547 | 2.78° C | 70% | 1030.2 hPa | - | - | - | - |
| 1777499644 | 3.33° C | 62% | 1030 hPa | - | - | - | - |
| 1777499343 | 3.33° C | 61% | 1029.9 hPa | - | - | - | - |
| 1777498741 | 3.33° C | 61% | 1029.8 hPa | - | - | - | - |
| 1777498440 | 3.33° C | 61% | 1029.7 hPa | - | - | - | - |
| 1777498139 | 3.89° C | 59% | 1029.6 hPa | - | - | - | - |
| 1777497838 | 3.89° C | 59% | 1029.6 hPa | - | - | - | - |
| 1777497537 | 3.89° C | 57% | 1029.6 hPa | - | - | - | - |
| 1777497236 | 3.89° C | 58% | 1029.6 hPa | - | - | - | - |
| 1777496935 | 3.89° C | 57% | 1029.6 hPa | - | - | - | - |
| 1777496634 | 4.44° C | 55% | 1029.5 hPa | - | - | - | - |
| 1777496333 | 4.44° C | 55% | 1029.4 hPa | - | - | - | - |
| 1777495429 | 4.44° C | 54% | 1029.2 hPa | - | - | - | - |
| 1777495127 | 4.44° C | 52% | 1029.2 hPa | - | - | - | - |
| 1777494826 | 4.44° C | 52% | 1029.1 hPa | - | - | - | - |
* Rain since midnight (hover to see other rain measurements)
** Current wind speed in m/s (hover to see current wind gust speed)